Flag for South Africa Weather past 2 weeks in Durban, South Africa

Now
48 °F

Clear.


Feels Like: 47 °F
Forecast: 51 / 80 °F
Wind: 3 mph from Southwest

Location: King Shaka International Airport

Current Time: Aug 4, 2015 at 12:17:15 AM

Latest Report: Aug 3, 2015 at 11:00 PM


Visibility: 10 mi

Pressure: 30.07 "Hg

Humidity: 76%

Dew point: 41 °F

Location of DurbanLocation

Historic Weather in Durban — Graph

°F

Durban temperature yesterday

Maximum temperature yesterday: 77 °F (at 12:00 PM)
Minimum temperature yesterday: 43 °F (at 4:00 AM)
Average temperature yesterday: 58 °F

Past Weeks' High & Low Weather Summary

 TemperatureHumidityPressure
High81 °F (Jul 29, 3:00 PM)94% (Jul 19, 11:00 PM)30.48 "Hg (Jul 19, 11:00 PM)
Low41 °F (Aug 2, 6:00 AM)28% (Aug 1, 11:00 AM)29.77 "Hg (Jul 29, 3:00 PM)
Average61 °F73%30.14 "Hg
* Reported Jul 19 10:00 PM — Aug 3 10:00 PM, Durban, Weather by CustomWeather, © 2015

Note: Actual official high and low records may vary slightly from our data, if they occured in-between our weather recording intervals... More about our weather records

Advertising

Durban weather history for previous 24 hours

 ConditionsComfort  
Time TempWeatherWind HumidityBarometerVisibility
10:00 PM
Mon, Aug 3
54 °FClear.1 mph67%30.09 "Hg10 mi
9:00 PM50 °FClear.1 mph76%30.09 "Hg10 mi
8:00 PM50 °FClear.1 mph76%30.09 "Hg10 mi
7:00 PM50 °FClear.1 mph71%30.09 "Hg10 mi
6:00 PM61 °FClear.2 mph45%30.09 "Hg10 mi
5:00 PM66 °FClear.2 mph40%30.09 "Hg10 mi
4:00 PM72 °FSunny.6 mph33%30.09 "Hg10 mi
3:00 PM72 °FPassing clouds.6 mph36%30.09 "HgN/A
2:00 PM75 °FPassing clouds.8 mph29%30.09 "HgN/A
1:00 PM77 °FPassing clouds.7 mph30%30.09 "HgN/A
12:00 PM77 °FPassing clouds.5 mph32%30.12 "HgN/A
11:00 AM75 °FSunny.2 mph29%30.15 "Hg10 mi
10:00 AM66 °FSunny.1 mph40%30.18 "Hg10 mi
9:00 AM61 °FSunny.No wind59%30.15 "Hg10 mi
8:00 AM57 °FSunny.2 mph77%30.15 "Hg10 mi
7:00 AM48 °FSunny.2 mph71%30.12 "Hg10 mi
6:00 AM45 °FSunny.1 mph81%30.12 "Hg10 mi
5:00 AM46 °FClear.6 mph76%30.12 "Hg10 mi
4:00 AM43 °FClear.1 mph93%30.12 "Hg10 mi
3:00 AM45 °FClear.1 mph87%30.12 "Hg10 mi
2:00 AM46 °FClear.1 mph93%30.15 "Hg10 mi
1:00 AM48 °FClear.3 mph87%30.18 "Hg10 mi
12:00 AM48 °FClear.1 mph87%30.18 "Hg10 mi
Weather by CustomWeather, © 2015

See weather overviewHow to use our weather pages